Time,TemperatureF,DewpointF,PressureIn,WindDirection,WindDirectionDegrees,WindSpeedMPH,WindSpeedGustMPH,Humidity,HourlyPrecipIn,Conditions,Clouds,dailyrainin,SoftwareType,DateUTC
2013-05-20 00:02:00,77.0,68.0,29.75,SSE,161,9.0,19.0,73,0.00,,,0.01,,2013-05-20 05:02:00,
2013-05-20 00:12:00,77.0,68.0,29.75,SSE,161,9.0,19.0,73,0.00,,,0.01,,2013-05-20 05:12:00,
2013-05-20 00:22:00,77.0,67.0,29.74,SW,217,8.0,17.0,71,0.00,,,0.01,,2013-05-20 05:22:00,
2013-05-20 00:32:00,77.0,66.0,29.73,SSW,205,11.0,17.0,69,0.00,,,0.01,,2013-05-20 05:32:00,
2013-05-20 00:42:00,77.0,66.0,29.73,SSW,205,11.0,17.0,69,0.00,,,0.01,,2013-05-20 05:42:00,
2013-05-20 00:51:00,76.0,65.0,29.73,SSW,206,9.0,19.0,68,0.00,,,0.01,,2013-05-20 05:51:00,
2013-05-20 01:01:00,76.0,65.0,29.72,SSW,207,11.0,19.0,69,0.00,,,0.01,,2013-05-20 06:01:00,
2013-05-20 01:11:00,76.0,65.0,29.72,SSW,207,11.0,19.0,69,0.00,,,0.01,,2013-05-20 06:11:00,
2013-05-20 01:21:00,75.0,64.0,29.72,South,184,10.0,17.0,69,0.00,,,0.01,,2013-05-20 06:21:00,
2013-05-20 01:32:00,75.0,65.0,29.72,SSE,148,7.0,16.0,71,0.00,,,0.01,,2013-05-20 06:32:00,
2013-05-20 01:42:00,75.0,65.0,29.72,SSE,148,7.0,16.0,71,0.00,,,0.01,,2013-05-20 06:42:00,
2013-05-20 01:52:00,74.0,64.0,29.72,South,184,6.0,12.0,72,0.00,,,0.01,,2013-05-20 06:52:00,
2013-05-20 02:02:00,74.0,64.0,29.72,South,178,8.0,15.0,72,0.00,,,0.01,,2013-05-20 07:02:00,
2013-05-20 02:12:00,74.0,64.0,29.72,South,178,8.0,15.0,72,0.00,,,0.01,,2013-05-20 07:12:00,
2013-05-20 02:21:00,75.0,65.0,29.70,South,173,8.0,17.0,71,0.00,,,0.01,,2013-05-20 07:21:00,
2013-05-20 02:32:00,74.0,64.0,29.70,SSW,210,9.0,16.0,72,0.00,,,0.01,,2013-05-20 07:32:00,
2013-05-20 02:42:00,74.0,64.0,29.70,SSW,210,9.0,16.0,72,0.00,,,0.01,,2013-05-20 07:42:00,
2013-05-20 02:52:00,74.0,65.0,29.68,SSW,201,11.0,21.0,73,0.00,,,0.01,,2013-05-20 07:52:00,
2013-05-20 03:01:00,74.0,65.0,29.67,South,177,9.0,14.0,74,0.00,,,0.01,,2013-05-20 08:01:00,
2013-05-20 03:11:00,74.0,65.0,29.67,South,177,9.0,14.0,74,0.00,,,0.01,,2013-05-20 08:11:00,
2013-05-20 03:21:00,74.0,65.0,29.70,SSW,212,6.0,15.0,74,0.00,,,0.01,,2013-05-20 08:21:00,
2013-05-20 03:32:00,73.0,65.0,29.71,South,187,8.0,16.0,75,0.00,,,0.01,,2013-05-20 08:32:00,
2013-05-20 03:41:00,73.0,65.0,29.71,South,187,8.0,16.0,75,0.00,,,0.01,,2013-05-20 08:41:00,
2013-05-20 03:51:00,73.0,65.0,29.71,SW,220,8.0,14.0,76,0.00,,,0.01,,2013-05-20 08:51:00,
2013-05-20 04:02:00,73.0,65.0,29.71,South,188,7.0,11.0,77,0.00,,,0.01,,2013-05-20 09:02:00,
2013-05-20 04:12:00,73.0,65.0,29.71,South,188,7.0,11.0,77,0.00,,,0.01,,2013-05-20 09:12:00,
2013-05-20 04:21:00,73.0,66.0,29.72,South,189,6.0,12.0,78,0.00,,,0.01,,2013-05-20 09:21:00,
2013-05-20 04:32:00,73.0,66.0,29.73,SW,218,6.0,11.0,78,0.00,,,0.01,,2013-05-20 09:32:00,
2013-05-20 04:43:00,73.0,66.0,29.73,SW,218,6.0,11.0,78,0.00,,,0.01,,2013-05-20 09:43:00,
2013-05-20 04:52:00,72.0,63.0,29.72,WSW,241,3.0,11.0,74,0.00,,,0.01,,2013-05-20 09:52:00,
2013-05-20 05:03:00,70.0,62.0,29.73,WSW,253,1.0,7.0,76,0.00,,,0.01,,2013-05-20 10:03:00,
2013-05-20 05:12:00,70.0,62.0,29.73,WSW,253,1.0,7.0,76,0.00,,,0.01,,2013-05-20 10:12:00,
2013-05-20 05:22:00,69.0,61.0,29.75,SW,234,1.0,8.0,77,0.00,,,0.01,,2013-05-20 10:22:00,
2013-05-20 05:32:00,68.0,61.0,29.79,West,261,5.0,9.0,78,0.00,,,0.01,,2013-05-20 10:32:00,
2013-05-20 05:42:00,68.0,61.0,29.79,West,261,5.0,9.0,78,0.00,,,0.01,,2013-05-20 10:42:00,
2013-05-20 05:52:00,68.0,62.0,29.78,WSW,242,6.0,12.0,80,0.00,,,0.01,,2013-05-20 10:52:00,
2013-05-20 06:02:00,66.0,60.0,29.80,SW,227,7.0,18.0,82,0.00,,,0.01,,2013-05-20 11:02:00,
2013-05-20 06:12:00,66.0,60.0,29.80,SW,227,7.0,18.0,82,0.00,,,0.01,,2013-05-20 11:12:00,
2013-05-20 06:21:00,65.0,60.0,29.80,West,260,4.0,11.0,83,0.00,,,0.01,,2013-05-20 11:21:00,
2013-05-20 06:32:00,65.0,59.0,29.80,West,263,4.0,13.0,82,0.00,,,0.01,,2013-05-20 11:32:00,
2013-05-20 06:42:00,65.0,59.0,29.80,West,263,4.0,13.0,82,0.00,,,0.01,,2013-05-20 11:42:00,
2013-05-20 06:51:00,65.0,59.0,29.81,SSW,213,6.0,12.0,80,0.00,,,0.01,,2013-05-20 11:51:00,
2013-05-20 07:01:00,65.0,58.0,29.78,WSW,247,3.0,9.0,79,0.00,,,0.01,,2013-05-20 12:01:00,
2013-05-20 07:11:00,65.0,58.0,29.78,WSW,247,3.0,9.0,79,0.00,,,0.01,,2013-05-20 12:11:00,
2013-05-20 07:21:00,65.0,59.0,29.75,WSW,254,0.0,1.0,80,0.00,,,0.01,,2013-05-20 12:21:00,
2013-05-20 07:32:00,65.0,59.0,29.74,WSW,254,0.0,0.0,81,0.00,,,0.01,,2013-05-20 12:32:00,
2013-05-20 07:41:00,65.0,59.0,29.74,WSW,254,0.0,0.0,81,0.00,,,0.01,,2013-05-20 12:41:00,
2013-05-20 07:52:00,65.0,59.0,29.75,SE,138,2.0,4.0,82,0.00,,,0.01,,2013-05-20 12:52:00,
2013-05-20 08:01:00,66.0,60.0,29.75,SE,140,4.0,7.0,80,0.00,,,0.01,,2013-05-20 13:01:00,
2013-05-20 08:11:00,66.0,60.0,29.75,SE,140,4.0,7.0,80,0.00,,,0.01,,2013-05-20 13:11:00,
2013-05-20 08:22:00,67.0,60.0,29.73,SSE,148,4.0,8.0,79,0.00,,,0.01,,2013-05-20 13:22:00,
2013-05-20 08:31:00,68.0,59.0,29.73,SSE,165,6.0,10.0,74,0.00,,,0.01,,2013-05-20 13:31:00,
2013-05-20 08:41:00,68.0,59.0,29.73,SSE,165,6.0,10.0,74,0.00,,,0.01,,2013-05-20 13:41:00,
2013-05-20 08:52:00,68.0,59.0,29.75,SSW,207,5.0,9.0,72,0.00,,,0.01,,2013-05-20 13:52:00,
2013-05-20 09:01:00,70.0,59.0,29.77,SSE,168,9.0,16.0,67,0.00,,,0.01,,2013-05-20 14:01:00,
2013-05-20 09:11:00,70.0,59.0,29.77,SSE,168,9.0,16.0,67,0.00,,,0.01,,2013-05-20 14:11:00,
2013-05-20 09:22:00,70.0,58.0,29.75,SW,214,9.0,18.0,66,0.00,,,0.01,,2013-05-20 14:22:00,
2013-05-20 09:32:00,68.0,60.0,29.76,SSW,212,11.0,17.0,75,0.01,,,0.02,,2013-05-20 14:32:00,
2013-05-20 09:42:00,68.0,60.0,29.76,SSW,212,11.0,17.0,75,0.01,,,0.02,,2013-05-20 14:42:00,
2013-05-20 09:52:00,68.0,59.0,29.72,SSW,194,8.0,17.0,73,0.01,,,0.02,,2013-05-20 14:52:00,
2013-05-20 10:01:00,69.0,60.0,29.70,South,180,8.0,14.0,72,0.01,,,0.02,,2013-05-20 15:01:00,
2013-05-20 10:11:00,69.0,60.0,29.70,South,180,8.0,14.0,72,0.01,,,0.02,,2013-05-20 15:11:00,
2013-05-20 10:21:00,70.0,60.0,29.73,SW,217,13.0,23.0,70,0.01,,,0.02,,2013-05-20 15:21:00,
2013-05-20 10:33:00,72.0,60.0,29.74,South,176,12.0,22.0,66,0.00,,,0.02,,2013-05-20 15:33:00,
2013-05-20 10:42:00,72.0,60.0,29.74,South,176,12.0,22.0,66,0.00,,,0.02,,2013-05-20 15:42:00,
2013-05-20 10:53:00,74.0,60.0,29.73,South,186,11.0,19.0,61,0.00,,,0.02,,2013-05-20 15:53:00,
2013-05-20 11:03:00,75.0,60.0,29.74,SSW,206,14.0,22.0,59,0.00,,,0.02,,2013-05-20 16:03:00,
2013-05-20 11:12:00,75.0,60.0,29.74,SSW,206,14.0,22.0,59,0.00,,,0.02,,2013-05-20 16:12:00,
2013-05-20 11:22:00,76.0,59.0,29.72,South,186,12.0,21.0,56,0.00,,,0.02,,2013-05-20 16:22:00,
2013-05-20 11:33:00,78.0,61.0,29.72,South,176,8.0,18.0,55,0.00,,,0.02,,2013-05-20 16:33:00,
2013-05-20 11:42:00,78.0,61.0,29.72,South,176,8.0,18.0,55,0.00,,,0.02,,2013-05-20 16:42:00,
2013-05-20 11:52:00,79.0,59.0,29.72,SSE,155,9.0,18.0,51,0.00,,,0.02,,2013-05-20 16:52:00,
2013-05-20 12:02:00,81.0,59.0,29.74,SSW,200,10.0,19.0,48,0.00,,,0.02,,2013-05-20 17:02:00,
2013-05-20 12:12:00,81.0,59.0,29.74,SSW,200,10.0,19.0,48,0.00,,,0.02,,2013-05-20 17:12:00,
2013-05-20 12:22:00,82.0,59.0,29.74,SW,220,8.0,23.0,45,0.00,,,0.02,,2013-05-20 17:22:00,
2013-05-20 12:33:00,83.0,58.0,29.73,SSW,199,11.0,19.0,43,0.00,,,0.02,,2013-05-20 17:33:00,
2013-05-20 12:45:00,83.0,58.0,29.73,SSW,199,11.0,19.0,43,0.00,,,0.02,,2013-05-20 17:45:00,
2013-05-20 12:53:00,83.0,59.0,29.74,SSW,198,10.0,18.0,45,0.00,,,0.02,,2013-05-20 17:53:00,
2013-05-20 13:02:00,83.0,58.0,29.74,South,185,10.0,20.0,43,0.00,,,0.02,,2013-05-20 18:02:00,
2013-05-20 13:12:00,83.0,58.0,29.74,South,185,10.0,20.0,43,0.00,,,0.02,,2013-05-20 18:12:00,
2013-05-20 13:23:00,84.0,58.0,29.75,South,188,9.0,17.0,42,0.00,,,0.02,,2013-05-20 18:23:00,
2013-05-20 13:32:00,84.0,58.0,29.75,South,188,9.0,17.0,42,0.00,,,0.02,,2013-05-20 18:32:00,
2013-05-20 13:42:00,84.0,58.0,29.75,South,188,9.0,17.0,42,0.00,,,0.02,,2013-05-20 18:42:00,
2013-05-20 13:55:00,85.0,58.0,29.75,SE,134,7.0,18.0,40,0.00,,,0.02,,2013-05-20 18:55:00,
2013-05-20 14:04:00,85.0,57.0,29.75,WSW,244,9.0,18.0,38,0.00,,,0.02,,2013-05-20 19:04:00,
2013-05-20 14:11:00,85.0,57.0,29.75,WSW,244,9.0,18.0,38,0.00,,,0.02,,2013-05-20 19:11:00,
2013-05-20 14:21:00,85.0,56.0,29.76,WSW,243,11.0,19.0,37,0.00,,,0.02,,2013-05-20 19:21:00,
2013-05-20 14:32:00,86.0,57.0,29.76,West,262,9.0,20.0,37,0.00,,,0.02,,2013-05-20 19:32:00,
2013-05-20 14:41:00,86.0,57.0,29.76,West,262,9.0,20.0,37,0.00,,,0.02,,2013-05-20 19:41:00,
2013-05-20 14:52:00,86.0,57.0,29.77,WSW,244,11.0,26.0,38,0.00,,,0.02,,2013-05-20 19:52:00,
2013-05-20 15:01:00,84.0,58.0,29.78,WSW,239,9.0,22.0,42,0.00,,,0.02,,2013-05-20 20:01:00,
2013-05-20 15:12:00,84.0,58.0,29.78,WSW,239,9.0,22.0,42,0.00,,,0.02,,2013-05-20 20:12:00,
2013-05-20 15:21:00,82.0,60.0,29.77,West,270,7.0,20.0,47,0.00,,,0.02,,2013-05-20 20:21:00,
2013-05-20 15:32:00,80.0,61.0,29.76,WSW,252,8.0,15.0,52,0.00,,,0.02,,2013-05-20 20:32:00,
2013-05-20 15:42:00,80.0,61.0,29.76,WSW,252,8.0,15.0,52,0.00,,,0.02,,2013-05-20 20:42:00,
2013-05-20 15:51:00,81.0,62.0,29.75,SSW,213,6.0,13.0,52,0.00,,,0.02,,2013-05-20 20:51:00,
2013-05-20 16:01:00,82.0,61.0,29.74,SSW,200,6.0,14.0,49,0.00,,,0.02,,2013-05-20 21:01:00,
2013-05-20 16:11:00,82.0,61.0,29.74,SSW,200,6.0,14.0,49,0.00,,,0.02,,2013-05-20 21:11:00,
2013-05-20 16:21:00,83.0,57.0,29.73,SW,228,7.0,13.0,41,0.00,,,0.02,,2013-05-20 21:21:00,
2013-05-20 16:33:00,83.0,59.0,29.73,WNW,293,5.0,16.0,44,0.00,,,0.01,,2013-05-20 21:33:00,
2013-05-20 16:43:00,84.0,60.0,29.72,SW,224,5.0,12.0,45,0.00,,,0.01,,2013-05-20 21:43:00,
2013-05-20 16:53:00,84.0,60.0,29.72,SW,224,5.0,12.0,45,0.00,,,0.01,,2013-05-20 21:53:00,
2013-05-20 17:02:00,84.0,58.0,29.72,SSW,201,4.0,11.0,42,0.00,,,0.01,,2013-05-20 22:02:00,
2013-05-20 17:12:00,84.0,58.0,29.72,SSW,201,4.0,11.0,42,0.00,,,0.01,,2013-05-20 22:12:00,
2013-05-20 17:23:00,84.0,60.0,29.72,SSE,167,2.0,16.0,45,0.00,,,0.01,,2013-05-20 22:23:00,
2013-05-20 17:33:00,84.0,60.0,29.71,SSW,211,5.0,14.0,44,0.00,,,0.01,,2013-05-20 22:33:00,
2013-05-20 17:42:00,84.0,60.0,29.71,SSW,211,5.0,14.0,44,0.00,,,0.01,,2013-05-20 22:42:00,
2013-05-20 17:52:00,84.0,60.0,29.70,SSW,209,7.0,12.0,44,0.00,,,0.01,,2013-05-20 22:52:00,
2013-05-20 18:03:00,84.0,59.0,29.70,South,178,9.0,15.0,43,0.00,,,0.01,,2013-05-20 23:03:00,
2013-05-20 18:12:00,84.0,59.0,29.70,South,178,9.0,15.0,43,0.00,,,0.01,,2013-05-20 23:12:00,
2013-05-20 18:22:00,84.0,60.0,29.70,South,184,9.0,15.0,45,0.00,,,0.01,,2013-05-20 23:22:00,
2013-05-20 18:32:00,83.0,60.0,29.69,South,175,7.0,17.0,46,0.00,,,0.01,,2013-05-20 23:32:00,
2013-05-20 18:42:00,83.0,60.0,29.69,South,175,7.0,17.0,46,0.00,,,0.01,,2013-05-20 23:42:00,
2013-05-20 18:52:00,83.0,62.0,29.68,South,187,9.0,17.0,50,0.00,,,0.01,,2013-05-20 23:52:00,
2013-05-20 19:01:00,82.0,63.0,29.68,South,184,10.0,17.0,53,0.00,,,0.01,,2013-05-21 00:01:00,
2013-05-20 19:11:00,82.0,63.0,29.68,South,184,10.0,17.0,53,0.00,,,0.01,,2013-05-21 00:11:00,
2013-05-20 19:21:00,81.0,63.0,29.68,SSW,200,10.0,17.0,55,0.00,,,0.01,,2013-05-21 00:21:00,
2013-05-20 19:32:00,80.0,64.0,29.68,SW,225,7.0,17.0,59,0.00,,,0.01,,2013-05-21 00:32:00,
2013-05-20 19:42:00,80.0,65.0,29.66,South,185,5.0,16.0,61,0.00,,,0.01,,2013-05-21 00:42:00,
2013-05-20 19:52:00,80.0,65.0,29.66,South,185,5.0,16.0,61,0.00,,,0.01,,2013-05-21 00:52:00,
2013-05-20 20:01:00,79.0,66.0,29.67,SW,220,8.0,16.0,64,0.00,,,0.01,,2013-05-21 01:01:00,
2013-05-20 20:11:00,79.0,66.0,29.67,SW,220,8.0,16.0,64,0.00,,,0.01,,2013-05-21 01:11:00,
2013-05-20 20:22:00,78.0,65.0,29.67,SSW,205,8.0,17.0,65,0.00,,,0.01,,2013-05-21 01:22:00,
2013-05-20 20:32:00,78.0,66.0,29.68,SSW,206,6.0,16.0,66,0.00,,,0.01,,2013-05-21 01:32:00,
2013-05-20 20:42:00,78.0,66.0,29.68,SSW,206,6.0,16.0,66,0.00,,,0.01,,2013-05-21 01:42:00,
2013-05-20 20:52:00,77.0,65.0,29.69,SSW,200,5.0,12.0,66,0.00,,,0.01,,2013-05-21 01:52:00,
2013-05-20 21:02:00,77.0,65.0,29.67,South,188,8.0,14.0,67,0.00,,,0.01,,2013-05-21 02:02:00,
2013-05-20 21:11:00,77.0,65.0,29.67,South,188,8.0,14.0,67,0.00,,,0.01,,2013-05-21 02:11:00,
2013-05-20 21:21:00,77.0,66.0,29.66,SSW,198,6.0,12.0,68,0.00,,,0.01,,2013-05-21 02:21:00,
2013-05-20 21:32:00,77.0,66.0,29.66,SW,216,7.0,19.0,69,0.00,,,0.01,,2013-05-21 02:32:00,
2013-05-20 21:42:00,77.0,66.0,29.66,SW,216,7.0,19.0,69,0.00,,,0.01,,2013-05-21 02:42:00,
2013-05-20 21:52:00,76.0,66.0,29.67,SSE,165,8.0,18.0,72,0.00,,,0.01,,2013-05-21 02:52:00,
2013-05-20 22:02:00,75.0,67.0,29.69,South,190,6.0,16.0,75,0.00,,,0.01,,2013-05-21 03:02:00,
2013-05-20 22:11:00,75.0,67.0,29.69,South,190,6.0,16.0,75,0.00,,,0.01,,2013-05-21 03:11:00,
2013-05-20 22:21:00,70.0,62.0,29.72,SW,236,11.0,22.0,76,0.06,,,0.07,,2013-05-21 03:21:00,
2013-05-20 22:33:00,65.0,60.0,29.72,SW,235,12.0,22.0,83,0.10,,,0.11,,2013-05-21 03:33:00,
2013-05-20 22:43:00,65.0,61.0,29.72,SSW,202,10.0,19.0,87,0.15,,,0.16,,2013-05-21 03:43:00,
2013-05-20 22:53:00,65.0,61.0,29.72,SSW,202,10.0,19.0,87,0.15,,,0.16,,2013-05-21 03:53:00,
2013-05-20 23:03:00,65.0,61.0,29.71,WSW,250,9.0,20.0,87,0.20,,,0.21,,2013-05-21 04:03:00,
2013-05-20 23:13:00,65.0,61.0,29.71,WSW,250,9.0,20.0,87,0.20,,,0.21,,2013-05-21 04:13:00,
2013-05-20 23:23:00,65.0,61.0,29.71,WSW,246,5.0,13.0,88,0.17,,,0.24,,2013-05-21 04:23:00,
2013-05-20 23:33:00,64.0,60.0,29.71,WSW,245,5.0,13.0,88,0.17,,,0.28,,2013-05-21 04:33:00,
2013-05-20 23:42:00,64.0,60.0,29.71,WSW,245,5.0,13.0,88,0.17,,,0.28,,2013-05-21 04:42:00,
2013-05-20 23:52:00,65.0,61.0,29.72,SW,227,8.0,15.0,86,0.17,,,0.33,,2013-05-21 04:52:00,